Regional Weather Roundup
Issued by NWS Huntsville, AL

Home | Current Version | Previous Version | Text Only | Print | Product List | Glossary On
Versions: 1 2 3 4 5 6 7 8 9 10 11 12 13 14 15 16 17 18 19 20 21 22 23 24 25 26 27 28 29 30 31 32 33 34 35 36 37 38 39 40 41 42 43 44 45 46 47 48 49 50
432
ASUS44 KHUN 190710
RWRHUN

WEATHER ROUNDUP FOR THE TENNESSEE VALLEY
NATIONAL WEATHER SERVICE HUNTSVILLE AL
100 AM CST THU JAN 19 2017

ALZ001>004-190800-
NORTHWEST ALABAMA

CITY           SKY/WX    TMP DP  RH WIND       PRES   REMARKS
COURTLAND HCN    N/A     54 N/A N/A E3          N/A
RUSSELLVILLE     N/A     54 N/A N/A MISG        N/A
SHOALS AIRPORT CLOUDY    55  48  77 SE3       30.03F
SHOALS TVA RES   N/A     54 N/A N/A MISG        N/A
$$

ALZ005>007-016-190800-
NORTH CENTRAL ALABAMA

CITY           SKY/WX    TMP DP  RH WIND       PRES   REMARKS
CULLMAN AG STN   N/A     55 N/A N/A CALM        N/A
DECATUR AP     CLOUDY    54  50  86 SE3       30.04F
HUNTSVILLE AP  CLOUDY    55  50  83 SE5       30.03F
MERIDIANVILLE  CLOUDY    52  46  82 CALM      30.04F
REDSTONE ARSN  CLOUDY    55  50  84 SW5       30.03F
VINEMONT AP    PTSUNNY   57  51  79 CALM      30.06F
$$

ALZ008>010-190800-
NORTHEAST ALABAMA

CITY           SKY/WX    TMP DP  RH WIND       PRES   REMARKS
ALBERTVILLE    MOCLDY    54  54 100 E3        30.05F
FORT PAYNE     CLOUDY    50  45  81 CALM      30.05F
SCOTTSBORO AP  CLOUDY    54  50  87 NE3       30.06F
SCOTTSBORO HCN   N/A     54 N/A N/A MISG        N/A
VALLEY HEAD      N/A     50 N/A N/A MISG        N/A
$$

TNZ076-096-097-190800-
SOUTHEASTERN MIDDLE TENNESSEE

CITY           SKY/WX    TMP DP  RH WIND       PRES   REMARKS
TULLAHOMA      CLOUDY    46  45  93 SE3       30.05F
WINCHESTER     CLOUDY    52  48  87 CALM      30.05F
$$

...SURROUNDING SITES...

CITY           SKY/WX    TMP DP  RH WIND       PRES   REMARKS
ATLANTA        MOCLDY    56  51  84 CALM      30.07F
ANNISTON       CLEAR     53  52  96 CALM      30.06F
BIRMINGHAM     CLOUDY    57  56  96 CALM      30.06F
CHATTANOOGA    CLOUDY    51  45  79 N6        30.08S
CORINTH        CLOUDY    55  52  88 N7        29.97F
DALTON         PTCLDY    46  46 100 CALM      30.07F
GADSDEN        PTCLDY    51  50  96 CALM      30.06F
GOLDEN TRNGL   CLOUDY    61  55  82 S5        29.96F
HALEYVILLE     MOCLDY    58  52  80 SE3       30.04F
JACKSON TN     CLOUDY    50  49  96 NE6       29.99F
MEMPHIS        CLOUDY    53  51  93 N6        29.98F
NASHVILLE      CLOUDY    48  43  82 NE5       30.07R
OXFORD MS      FAIR      55  55 100 SE7G16    29.98F
ROME           CLOUDY    52  48  86 CALM      30.06F
SAVANNAH       CLOUDY    54  52  94 N7        30.00R
TUPELO         CLOUDY    58  55  90 S5        29.99F
TUSCALOOSA     CLOUDY    58  58 100 NE3       30.02F
$$

...GULF COAST WEATHER...

CITY           SKY/WX    TMP DP  RH WIND       PRES   REMARKS
GULFPORT       CLOUDY    68  68 100 SE8       30.01F FOG
PASCAGOULA     CLOUDY    68  66  93 SE7       30.04F FOG
MOBILE         FOG       67  66  97 SE5       30.05F VSB 1/4
GULF SHORES    FOG       64  64 100 S7        30.04F VSB 1/2
PENSACOLA      FOG       68  67  96 E5        30.04F VSB 1/4
DESTIN         FOG       65  64  97 CALM      30.06F VSB 1
PANAMA CITY    FOG       64  64 100 CALM      30.06F VSB 1/4
APPALACHICOLA  CLOUDY    63  63 100 CALM      30.07F
$$





USA.gov is the U.S. government's official web portal to all federal, state and local government web resources and services.